Regional Weather Roundup
Issued by NWS

Home | Current Version | Previous Version | Text Only | Print | Product List | Glossary Off
Versions: 1 2 3 4 5 6 7 8 9 10 11 12 13 14 15 16 17 18 19 20 21 22 23 24 25 26 27 28 29 30 31 32 33 34 35 36 37 38 39 40 41 42 43 44 45 46 47 48 49 50

000
ASUS43 KOAX 281802
RWRNE

WEATHER ROUNDUP FOR NEBRASKA
NATIONAL WEATHER SERVICE OMAHA NE
1200 PM CST SUN DEC 28 2014

NOTES: SATELLITE DATA IS BEING USED TO AUGMENT CLOUD COVER ABOVE
       12000 FEET.
       "FAIR" INDICATES FEW OR NO CLOUDS BELOW 12,000 FEET WITH NO
       SIGNIFICANT WEATHER AND/OR OBSTRUCTIONS TO VISIBILITY.

  * THESE STATIONS DO NOT REPORT WEATHER SUCH AS RAIN...SNOW OR FOG.

NEZ001>004-019>022-054>056-281900-
NEBRASKA PANHANDLE

CITY           SKY/WX    TMP DP  RH WIND       PRES   REMARKS
SCOTTSBLUFF    CLOUDY    18  13  80 E8        29.92F WCI   8
6HR MIN TEMP:  -2; 6HR MAX TEMP:  20;

ALLIANCE       CLOUDY    29  18  63 W15       29.92F WCI  18
6HR MIN TEMP:  -2; 6HR MAX TEMP:  29;

CHADRON        CLOUDY    18  10  71 CALM      29.94F
6HR MIN TEMP:   3; 6HR MAX TEMP:  18;

KIMBALL        CLOUDY    28  14  56 S7        29.88F WCI  21
SIDNEY         CLOUDY    24  13  62 W5        29.94F WCI  18
6HR MIN TEMP:  -1; 6HR MAX TEMP:  25;

$$

NEZ057>060-069>072-079>082-281900-
SOUTHWEST NEBRASKA

CITY           SKY/WX    TMP DP  RH WIND       PRES   REMARKS
NORTH PLATTE   PTSUNNY   15  10  80 NW3       30.04F
6HR MIN TEMP:  -6; 6HR MAX TEMP:  15;

IMPERIAL       MOSUNNY   18   9  68 CALM      29.99F
6HR MIN TEMP:  -1; 6HR MAX TEMP:  19;

LEXINGTON      CLOUDY    20  14  77 NW6       30.05F WCI  12
MCCOOK         PTSUNNY   17  11  77 SW5       30.06F WCI  10
6HR MIN TEMP:   2; 6HR MAX TEMP:  17;

OGALLALA       CLOUDY    18  11  72 CALM      30.00F
$$

NEZ005>010-023>029-035>040-094-281900-
NORTH CENTRAL NEBRASKA

CITY           SKY/WX    TMP DP  RH WIND       PRES   REMARKS
VALENTINE      CLOUDY    19  10  68 CALM      30.03F
6HR MIN TEMP:  -3; 6HR MAX TEMP:  19;

AINSWORTH      CLOUDY    19  10  69 CALM      30.03F
BROKEN BOW     CLOUDY    23  16  74 CALM      30.03F
6HR MIN TEMP:   0; 6HR MAX TEMP:  23;

O`NEILL        MOSUNNY   16  11  81 CALM      30.07F
ORD            CLOUDY    18  11  74 NW5       30.07F WCI  11
6HR MIN TEMP:   0; 6HR MAX TEMP:  18;

$$

NEZ041-046>049-061>064-073>077-083>087-281900-
SOUTH CENTRAL NEBRASKA

CITY           SKY/WX    TMP DP  RH WIND       PRES   REMARKS
GRAND ISLAND   MOSUNNY   24  13  62 NW3       30.10F
6HR MIN TEMP:   3; 6HR MAX TEMP:  24;

AURORA         SUNNY     25  15  66 N3        30.09F
HASTINGS       MOSUNNY   23  13  65 W6        30.08F WCI  16
6HR MIN TEMP:   8; 6HR MAX TEMP:  23;

HEBRON         SUNNY     32  20  60 SW6       30.12F WCI  26
HOLDREGE       MOSUNNY   22  13  67 CALM      30.07F
KEARNEY *      PTSUNNY   23  10  58 CALM      30.08F
YORK           SUNNY     23  16  74 CALM      30.11F
$$

NEZ011>018-030>034-042>045-281900-
NORTHEAST NEBRASKA

CITY           SKY/WX    TMP DP  RH WIND       PRES   REMARKS
NORFOLK        MOSUNNY   19  12  74 CALM      30.10F
6HR MIN TEMP:   6; 6HR MAX TEMP:  19;

ALBION         PTSUNNY   21  12  67 CALM      30.09F
BLAIR          SUNNY     25  17  72 CALM      30.13S
COLUMBUS *     SUNNY     21   9  58 NE3       30.13F
FREMONT        SUNNY     21  15  75 W5        30.14F WCI  15
TEKAMAH        SUNNY     24  16  71 N5        30.15F WCI  18
6HR MIN TEMP:  11; 6HR MAX TEMP:  24;

WAYNE          MOSUNNY   19  11  72 CALM      30.14R
$$

NEZ050>053-065>068-078-088>093-281900-
SOUTHEAST NEBRASKA

CITY           SKY/WX    TMP DP  RH WIND       PRES   REMARKS
LINCOLN        SUNNY     28  17  63 SW5       30.15F WCI  23
6HR MIN TEMP:  12; 6HR MAX TEMP:  28;

OMAHA EPPLEY   MOSUNNY   28  19  69 CALM      30.16F
6HR MIN TEMP:  15; 6HR MAX TEMP:  28;

BEATRICE       SUNNY     33  21  62 SW8       30.13F WCI  25
FALLS CITY     SUNNY     36  23  59 SW10      30.16F WCI  28
6HR MIN TEMP:  14; 6HR MAX TEMP:  36;

NEBRASKA CITY  SUNNY     32  20  63 SW8       30.15S WCI  24
$$

NEZ044-045-051>053-067-281900-
OMAHA AREA

CITY           SKY/WX    TMP DP  RH WIND       PRES   REMARKS
OMAHA EPPLEY   MOSUNNY   28  19  69 CALM      30.16F
6HR MIN TEMP:  15; 6HR MAX TEMP:  28;

BLAIR          SUNNY     25  17  72 CALM      30.13S
FREMONT        SUNNY     21  15  75 W5        30.14F WCI  15
MILLARD        SUNNY     29  18  61 SW3       30.15S
OFFUTT AFB     SUNNY     27  18  70 SW2       30.14F
WAHOO          FAIR      24  15  68 NE3       30.14F
$$


USA.gov is the U.S. government's official web portal to all federal, state and local government web resources and services.